Fort Morgan, CO

10:51 AM MDT on March 28, 2017 (GMT -0600)
Fort Morgan

Weather History for KFMM - May, 2014

Change the Weather History Date:

Tuesday, May 13, 2014

  Actual Average (KAKO) Record (KAKO)
Temperature  
Mean Temperature 41 °F -  
Max Temperature 53 °F 67 °F 92 °F (1941)
Min Temperature 29 °F 40 °F 25 °F (1953)
Degree Days  
Heating Degree Days 24    
Moisture  
Dew Point 25 °F    
Average Humidity 55    
Maximum Humidity 91    
Minimum Humidity 29    
Precipitation  
Precipitation 0.00 in - - ()
Sea Level Pressure  
Sea Level Pressure 30.40 in    
Wind  
Wind Speed 12 mph (NW)    
Max Wind Speed 18 mph    
Max Gust Speed 23 mph    
Visibility 10 miles    
Events      
Averages and records for this station are not official NWS values.
T = Trace of Precipitation, MM = Missing Value Source: NWS Daily Summary

Daily Weather History Graph

Daily Weather History Graph

Search for Another Location

Airport or City:

Trip Planner

Search our weather history database for the weather conditions in past years. The results will help you decide how hot, cold, wet, or windy it might be!

Date:

Astronomy

May. 13, 2014 Rise Set
Actual Time 5:40 AM MDT 8:02 PM MDT
Civil Twilight 5:10 AM MDT 8:33 PM MDT
Nautical Twilight 4:32 AM MDT 9:11 PM MDT
Astronomical Twilight 3:50 AM MDT 9:53 PM MDT
Moon 7:06 PM MDT (5/13) 4:59 AM MDT (5/13)
Length of Visible Light 15h 23m
Length of Day
14h 21m
Waxing Gibbous, 99% of the Moon is Illuminated
May 13
Waxing Gibbous
May 14
Full
May 21
Last Quarter
May 28
New
Jun 5
First Quarter

Hourly Weather History & Observations

Time (MDT) Temp. Windchill Dew Point Humidity Pressure Visibility Wind Dir Wind Speed Gust Speed Precip Events Conditions
12:15 AM 30.2 °F 21.3 °F 27.5 °F 90% 30.39 in 10.0 mi WNW 10.4 mph - N/A   Clear
12:35 AM 29.8 °F 21.5 °F 27.3 °F 90% 30.39 in 10.0 mi WNW 9.2 mph - N/A   Clear
12:55 AM 29.3 °F 21.5 °F 27.0 °F 91% 30.39 in 10.0 mi WNW 8.1 mph - N/A   Clear
1:35 AM 31.8 °F 23.3 °F 27.1 °F 83% 30.38 in 10.0 mi NW 10.4 mph - N/A   Clear
1:55 AM 31.6 °F 23.1 °F 26.6 °F 82% 30.38 in 10.0 mi NW 10.4 mph - N/A   Clear
2:15 AM 32.0 °F 23.0 °F 26.1 °F 79% 30.38 in 10.0 mi NW 11.5 mph - N/A   Clear
2:35 AM 32.0 °F 22.5 °F 25.7 °F 78% 30.37 in 10.0 mi NW 12.7 mph - N/A   Clear
2:55 AM 32.4 °F 23.0 °F 25.7 °F 76% 30.37 in 10.0 mi NW 12.7 mph - N/A   Clear
3:15 AM 32.0 °F 22.5 °F 25.3 °F 76% 30.37 in 10.0 mi NW 12.7 mph - N/A   Clear
3:35 AM 32.0 °F 22.5 °F 24.8 °F 75% 30.37 in 10.0 mi NW 12.7 mph - N/A   Clear
3:55 AM 32.0 °F 22.5 °F 24.8 °F 75% 30.38 in 10.0 mi NW 12.7 mph - N/A   Clear
4:15 AM 32.0 °F 22.5 °F 24.8 °F 75% 30.38 in 10.0 mi NW 12.7 mph - N/A   Clear
4:35 AM 32.0 °F 22.5 °F 25.2 °F 76% 30.38 in 10.0 mi NW 12.7 mph - N/A   Clear
4:55 AM 32.0 °F 22.5 °F 25.2 °F 76% 30.38 in 10.0 mi NW 12.7 mph - N/A   Clear
5:15 AM 32.0 °F 22.1 °F 24.8 °F 75% 30.38 in 10.0 mi NW 13.8 mph - N/A   Clear
5:35 AM 32.0 °F 22.1 °F 24.6 °F 74% 30.39 in 10.0 mi NW 13.8 mph - N/A   Clear
5:55 AM 32.2 °F 22.3 °F 24.6 °F 74% 30.40 in 10.0 mi NW 13.8 mph - N/A   Clear
6:15 AM 32.9 °F 22.8 °F 24.4 °F 71% 30.40 in 10.0 mi NW 15.0 mph - N/A   Clear
7:15 AM 36.7 °F 28.4 °F 24.8 °F 62% 30.42 in 10.0 mi NW 12.7 mph 19.6 mph N/A   Clear
7:35 AM 39.4 °F 31.1 °F 25.3 °F 57% 30.43 in 10.0 mi NW 15.0 mph 19.6 mph N/A   Clear
7:55 AM 39.6 °F 32.5 °F 25.9 °F 58% 30.43 in 10.0 mi NW 11.5 mph 17.3 mph N/A   Clear
8:15 AM 40.3 °F 31.9 °F 25.2 °F 55% 30.43 in 10.0 mi NW 16.1 mph - N/A   Clear
10:35 AM 46.4 °F 40.7 °F 19.9 °F 35% 30.44 in 10.0 mi North 12.7 mph 20.7 mph N/A   Overcast
10:55 AM 46.6 °F - 21.9 °F 38% 30.43 in 10.0 mi NNW 10.4 mph 19.6 mph N/A   Overcast
11:35 AM 47.1 °F - 21.2 °F 36% 30.43 in 10.0 mi NW 8.1 mph - N/A   Mostly Cloudy
11:55 AM 47.3 °F - 20.1 °F 34% 30.43 in 10.0 mi NW 9.2 mph - N/A   Overcast
12:15 PM 50.2 °F - 21.7 °F 33% 30.43 in 10.0 mi North 10.4 mph 17.3 mph N/A   Overcast
12:35 PM 48.7 °F - 20.3 °F 33% 30.43 in 10.0 mi North 8.1 mph 20.7 mph N/A   Overcast
12:55 PM 48.6 °F - 22.1 °F 35% 30.43 in 10.0 mi NNW 16.1 mph 20.7 mph N/A   Mostly Cloudy
1:15 PM 50.0 °F - 22.1 °F 33% 30.43 in 10.0 mi NNW 8.1 mph 17.3 mph N/A   Mostly Cloudy
1:35 PM 50.0 °F - 23.4 °F 35% 30.43 in 10.0 mi NW 10.4 mph 23.0 mph N/A   Overcast
1:55 PM 51.6 °F - 22.8 °F 32% 30.42 in 10.0 mi NW 15.0 mph 20.7 mph N/A   Mostly Cloudy
2:15 PM 51.8 °F - 21.0 °F 30% 30.41 in 10.0 mi NNW 11.5 mph 20.7 mph N/A   Mostly Cloudy
2:55 PM 50.2 °F - 21.6 °F 33% 30.41 in 10.0 mi NW 11.5 mph - N/A   Mostly Cloudy
3:15 PM 53.4 °F - 23.5 °F 31% 30.40 in 10.0 mi WNW 18.4 mph 23.0 mph N/A   Mostly Cloudy
3:35 PM 50.5 °F - 21.7 °F 32% 30.40 in 10.0 mi NW 13.8 mph 18.4 mph N/A   Overcast
3:55 PM 50.4 °F - 21.9 °F 33% 30.39 in 10.0 mi NW 11.5 mph 19.6 mph N/A   Mostly Cloudy
4:15 PM 51.8 °F - 22.8 °F 32% 30.39 in 10.0 mi NW 12.7 mph 18.4 mph N/A   Mostly Cloudy
4:35 PM 52.2 °F - 22.8 °F 32% 30.39 in 10.0 mi NW 16.1 mph 21.9 mph N/A   Mostly Cloudy
4:55 PM 51.6 °F - 21.0 °F 30% 30.39 in 10.0 mi NW 15.0 mph 20.7 mph N/A   Mostly Cloudy
5:15 PM 51.6 °F - 22.8 °F 32% 30.39 in 10.0 mi NW 16.1 mph 23.0 mph N/A   Mostly Cloudy
5:35 PM 52.9 °F - 21.9 °F 30% 30.39 in 10.0 mi NNW 15.0 mph 20.7 mph N/A   Mostly Cloudy
5:55 PM 52.5 °F - 21.0 °F 29% 30.39 in 10.0 mi NW 11.5 mph - N/A   Scattered Clouds
6:15 PM 52.5 °F - 21.2 °F 29% 30.39 in 10.0 mi NNW 17.3 mph 20.7 mph N/A   Mostly Cloudy
6:35 PM 51.6 °F - 21.0 °F 30% 30.39 in 10.0 mi NW 16.1 mph 23.0 mph N/A   Scattered Clouds
6:55 PM 50.5 °F - 21.6 °F 32% 30.39 in 10.0 mi NNW 15.0 mph - N/A   Clear
7:15 PM 49.3 °F - 22.5 °F 35% 30.39 in 10.0 mi NW 11.5 mph - N/A   Clear
7:35 PM 48.0 °F - 23.5 °F 38% 30.40 in 10.0 mi NW 10.4 mph - N/A   Clear
7:55 PM 45.0 °F 40.1 °F 25.5 °F 47% 30.40 in 10.0 mi NNW 9.2 mph - N/A   Clear
8:15 PM 42.1 °F 35.7 °F 26.6 °F 54% 30.41 in 10.0 mi North 11.5 mph - N/A   Clear
8:55 PM 37.6 °F 31.6 °F 29.3 °F 72% 30.41 in 10.0 mi NNW 8.1 mph - N/A   Clear
9:15 PM 37.0 °F 30.4 °F 29.3 °F 74% 30.41 in 10.0 mi NNW 9.2 mph - N/A   Clear
9:35 PM 36.5 °F 29.2 °F 28.2 °F 72% 30.42 in 10.0 mi NNW 10.4 mph - N/A   Clear
9:55 PM 36.0 °F 28.5 °F 28.4 °F 74% 30.42 in 10.0 mi NNW 10.4 mph - N/A   Clear
10:15 PM 37.0 °F 29.3 °F 28.9 °F 73% 30.43 in 10.0 mi NNW 11.5 mph - N/A   Clear
10:35 PM 39.0 °F 31.4 °F 29.1 °F 68% 30.43 in 10.0 mi NNW 12.7 mph - N/A   Clear
10:55 PM 39.4 °F 31.4 °F 29.5 °F 68% 30.43 in 10.0 mi NW 13.8 mph - N/A   Clear
11:15 PM 40.1 °F 32.0 °F 30.2 °F 68% 30.43 in 10.0 mi NNW 15.0 mph - N/A   Clear
11:35 PM 39.6 °F 30.6 °F 31.1 °F 72% 30.43 in 10.0 mi NNW 17.3 mph - N/A   Scattered Clouds
11:55 PM 39.6 °F 31.3 °F 30.9 °F 71% 30.43 in 10.0 mi NW 15.0 mph - N/A   Scattered Clouds